Вернуться в каталог

STARLINK-5836

АктивенСвязьVLEO
NORAD 56386·PAYLOAD·🇺🇸 United States

Запущен May 4, 2023 с Cape Canaveral Space Force Station

Loading…

Ближайшие Пролёты (ближайшие 24 часа)

TLE

СвежийSource: CelesTrak SupGP

Эпоха: Sep 15, 2026, 02:04 UTC

1 56386C 23061N   26258.08659722 -.00018774  00000+0 -68020-3 0  2587
2 56386  42.9992 208.5370 0000656 247.2037  71.6707 15.27578850    19

Отслеживайте STARLINK-5836 в реальном времени с AllMySat

Download on the App Store